Year,Month,Day,Hour,Minute,Value (Times are PST for temperature in C)
2014,03,09,00,00,11.70
2014,03,09,00,01,11.70
2014,03,09,00,02,11.70
2014,03,09,00,03,11.60
2014,03,09,00,04,11.60
2014,03,09,00,05,11.50
2014,03,09,00,06,11.50
2014,03,09,00,07,11.50
2014,03,09,00,08,11.60
2014,03,09,00,09,11.60
2014,03,09,00,10,11.70
2014,03,09,00,11,11.70
2014,03,09,00,12,11.70
2014,03,09,00,13,11.70
2014,03,09,00,14,11.70
2014,03,09,00,15,11.70
2014,03,09,00,16,11.70
2014,03,09,00,17,11.70
2014,03,09,00,18,11.70
2014,03,09,00,19,11.60
2014,03,09,00,20,11.50
2014,03,09,00,21,11.50
2014,03,09,00,22,11.50
2014,03,09,00,23,11.40
2014,03,09,00,24,11.40
2014,03,09,00,25,11.40
2014,03,09,00,26,11.40
2014,03,09,00,27,11.40
2014,03,09,00,28,11.40
2014,03,09,00,29,11.40
2014,03,09,00,30,11.50
2014,03,09,00,31,11.60
2014,03,09,00,32,11.60
2014,03,09,00,33,11.70
2014,03,09,00,34,11.70
2014,03,09,00,35,11.70
2014,03,09,00,36,11.70
2014,03,09,00,37,11.80
2014,03,09,00,38,11.80
2014,03,09,00,39,11.80
2014,03,09,00,40,11.70
2014,03,09,00,41,11.70
2014,03,09,00,42,11.70
2014,03,09,00,43,11.70
2014,03,09,00,44,11.70
2014,03,09,00,45,11.70
2014,03,09,00,46,11.70
2014,03,09,00,47,11.70
2014,03,09,00,48,11.60
2014,03,09,00,49,11.60
2014,03,09,00,50,11.60
2014,03,09,00,51,11.60
2014,03,09,00,52,11.60
2014,03,09,00,53,11.60
2014,03,09,00,54,11.60
2014,03,09,00,55,11.60
2014,03,09,00,56,11.60
2014,03,09,00,57,11.60
2014,03,09,00,58,11.50
2014,03,09,00,59,11.50
2014,03,09,01,00,11.50
2014,03,09,01,01,11.50
2014,03,09,01,02,11.50
2014,03,09,01,03,11.60
2014,03,09,01,04,11.60
2014,03,09,01,05,11.70
2014,03,09,01,06,11.70
2014,03,09,01,07,11.70
2014,03,09,01,08,11.70
2014,03,09,01,09,11.70
2014,03,09,01,10,11.60
2014,03,09,01,11,11.50
2014,03,09,01,12,11.50
2014,03,09,01,13,11.50
2014,03,09,01,14,11.50
2014,03,09,01,15,11.50
2014,03,09,01,16,11.60
2014,03,09,01,17,11.50
2014,03,09,01,18,11.50
2014,03,09,01,19,11.50
2014,03,09,01,20,11.50
2014,03,09,01,21,11.50
2014,03,09,01,22,11.50
2014,03,09,01,23,11.50
2014,03,09,01,24,11.50
2014,03,09,01,25,11.50
2014,03,09,01,26,11.50
2014,03,09,01,27,11.60
2014,03,09,01,28,11.60
2014,03,09,01,29,11.60
2014,03,09,01,30,11.60
2014,03,09,01,31,11.60
2014,03,09,01,32,11.50
2014,03,09,01,33,11.50
2014,03,09,01,34,11.40
2014,03,09,01,35,11.40
2014,03,09,01,36,11.40
2014,03,09,01,37,11.40
2014,03,09,01,38,11.30
2014,03,09,01,39,11.30
2014,03,09,01,40,11.30
2014,03,09,01,41,11.30
2014,03,09,01,42,11.30
2014,03,09,01,43,11.30
2014,03,09,01,44,11.30
2014,03,09,01,45,11.30
2014,03,09,01,46,11.30
2014,03,09,01,47,11.30
2014,03,09,01,48,11.30
2014,03,09,01,49,11.30
2014,03,09,01,50,11.30
2014,03,09,01,51,11.30
2014,03,09,01,52,11.20
2014,03,09,01,53,11.10
2014,03,09,01,54,11.00
2014,03,09,01,55,10.90
2014,03,09,01,56,10.90
2014,03,09,01,57,10.80
2014,03,09,01,58,10.80
2014,03,09,01,59,10.80
2014,03,09,03,00,10.80
2014,03,09,03,01,10.80
2014,03,09,03,02,10.70
2014,03,09,03,03,10.70
2014,03,09,03,04,10.60
2014,03,09,03,05,10.60
2014,03,09,03,06,10.60
2014,03,09,03,07,10.60
2014,03,09,03,08,10.50
2014,03,09,03,09,10.50
2014,03,09,03,10,10.50
2014,03,09,03,11,10.50
2014,03,09,03,12,10.50
2014,03,09,03,13,10.60
2014,03,09,03,14,10.70
2014,03,09,03,15,10.80
2014,03,09,03,16,11.00
2014,03,09,03,17,11.10
2014,03,09,03,18,11.30
2014,03,09,03,19,11.30
2014,03,09,03,20,11.40
2014,03,09,03,21,11.40
2014,03,09,03,22,11.40
2014,03,09,03,23,11.40
2014,03,09,03,24,11.40
2014,03,09,03,25,11.30
2014,03,09,03,26,11.30
2014,03,09,03,27,11.30
2014,03,09,03,28,11.20
2014,03,09,03,29,11.20
2014,03,09,03,30,11.10
2014,03,09,03,31,11.10
2014,03,09,03,32,11.10
2014,03,09,03,33,11.10
2014,03,09,03,34,11.20
2014,03,09,03,35,11.20
2014,03,09,03,36,11.20
2014,03,09,03,37,11.20
2014,03,09,03,38,11.10
2014,03,09,03,39,11.10
2014,03,09,03,40,11.10
2014,03,09,03,41,11.20
2014,03,09,03,42,11.20
2014,03,09,03,43,11.20
2014,03,09,03,44,11.30
2014,03,09,03,45,11.30
2014,03,09,03,46,11.30
2014,03,09,03,47,11.30
2014,03,09,03,48,11.30
2014,03,09,03,49,11.30
2014,03,09,03,50,11.30
2014,03,09,03,51,11.30
2014,03,09,03,52,11.30
2014,03,09,03,53,11.20
2014,03,09,03,54,11.30
2014,03,09,03,55,11.30
2014,03,09,03,56,11.20
2014,03,09,03,57,11.30
2014,03,09,03,58,11.30
2014,03,09,03,59,11.30
2014,03,09,04,00,11.40
2014,03,09,04,01,11.40
2014,03,09,04,02,11.40
2014,03,09,04,03,11.40
2014,03,09,04,04,11.30
2014,03,09,04,05,11.30
2014,03,09,04,06,11.30
2014,03,09,04,07,11.20
2014,03,09,04,08,11.20
2014,03,09,04,09,11.20
2014,03,09,04,10,11.10
2014,03,09,04,11,11.10
2014,03,09,04,12,11.10
2014,03,09,04,13,11.10
2014,03,09,04,14,11.10
2014,03,09,04,15,11.10
2014,03,09,04,16,11.10
2014,03,09,04,17,11.10
2014,03,09,04,18,11.10
2014,03,09,04,19,11.10
2014,03,09,04,20,11.10
2014,03,09,04,21,11.10
2014,03,09,04,22,11.10
2014,03,09,04,23,11.00
2014,03,09,04,24,11.00
2014,03,09,04,25,10.90
2014,03,09,04,26,11.00
2014,03,09,04,27,11.00
2014,03,09,04,28,10.90
2014,03,09,04,29,10.90
2014,03,09,04,30,10.90
2014,03,09,04,31,10.90
2014,03,09,04,32,10.90
2014,03,09,04,33,10.90
2014,03,09,04,34,10.90
2014,03,09,04,35,10.90
2014,03,09,04,36,10.90
2014,03,09,04,37,10.90
2014,03,09,04,38,10.90
2014,03,09,04,39,10.90
2014,03,09,04,40,10.90
2014,03,09,04,41,10.90
2014,03,09,04,42,10.90
2014,03,09,04,43,10.80
2014,03,09,04,44,10.80
2014,03,09,04,45,10.80
2014,03,09,04,46,10.80
2014,03,09,04,47,10.70
2014,03,09,04,48,10.70
2014,03,09,04,49,10.70
2014,03,09,04,50,10.60
2014,03,09,04,51,10.70
2014,03,09,04,52,10.70
2014,03,09,04,53,10.70
2014,03,09,04,54,10.70
2014,03,09,04,55,10.70
2014,03,09,04,56,10.60
2014,03,09,04,57,10.70
2014,03,09,04,58,10.70
2014,03,09,04,59,10.70
2014,03,09,05,00,10.70
2014,03,09,05,01,10.80
2014,03,09,05,02,10.80
2014,03,09,05,03,10.90
2014,03,09,05,04,10.90
2014,03,09,05,05,10.90
2014,03,09,05,06,10.90
2014,03,09,05,07,10.80
2014,03,09,05,08,10.80
2014,03,09,05,09,10.80
2014,03,09,05,10,10.80
2014,03,09,05,11,10.80
2014,03,09,05,12,10.80
2014,03,09,05,13,10.80
2014,03,09,05,14,10.80
2014,03,09,05,15,10.80
2014,03,09,05,16,10.80
2014,03,09,05,17,10.80
2014,03,09,05,18,10.80
2014,03,09,05,19,10.80
2014,03,09,05,20,10.70
2014,03,09,05,21,10.70
2014,03,09,05,22,10.70
2014,03,09,05,23,10.70
2014,03,09,05,24,10.70
2014,03,09,05,25,10.70
2014,03,09,05,26,10.60
2014,03,09,05,27,10.60
2014,03,09,05,28,10.50
2014,03,09,05,29,10.50
2014,03,09,05,30,10.50
2014,03,09,05,31,10.50
2014,03,09,05,32,10.50
2014,03,09,05,33,10.50
2014,03,09,05,34,10.40
2014,03,09,05,35,10.40
2014,03,09,05,36,10.40
2014,03,09,05,37,10.40
2014,03,09,05,38,10.40
2014,03,09,05,39,10.30
2014,03,09,05,40,10.30
2014,03,09,05,41,10.30
2014,03,09,05,42,10.30
2014,03,09,05,43,10.20
2014,03,09,05,44,10.20
2014,03,09,05,45,10.20
2014,03,09,05,46,10.20
2014,03,09,05,47,10.30
2014,03,09,05,48,10.30
2014,03,09,05,49,10.30
2014,03,09,05,50,10.30
2014,03,09,05,51,10.30
2014,03,09,05,52,10.30
2014,03,09,05,53,10.20
2014,03,09,05,54,10.20
2014,03,09,05,55,10.10
2014,03,09,05,56,10.10
2014,03,09,05,57,10.10
2014,03,09,05,58,10.10
2014,03,09,05,59,10.10
2014,03,09,06,00,10.00
2014,03,09,06,01,10.00
2014,03,09,06,02,9.90
2014,03,09,06,03,9.90
2014,03,09,06,04,9.90
2014,03,09,06,05,9.80
2014,03,09,06,06,9.80
2014,03,09,06,07,9.80
2014,03,09,06,08,9.80
2014,03,09,06,09,9.80
2014,03,09,06,10,9.80
2014,03,09,06,11,9.80
2014,03,09,06,12,9.80
2014,03,09,06,13,9.80
2014,03,09,06,14,9.80
2014,03,09,06,15,9.80
2014,03,09,06,16,9.80
2014,03,09,06,17,9.80
2014,03,09,06,18,9.80
2014,03,09,06,19,9.80
2014,03,09,06,20,9.80
2014,03,09,06,21,9.80
2014,03,09,06,22,9.80
2014,03,09,06,23,9.80
2014,03,09,06,24,9.70
2014,03,09,06,25,9.70
2014,03,09,06,26,9.60
2014,03,09,06,27,9.60
2014,03,09,06,28,9.60
2014,03,09,06,29,9.50
2014,03,09,06,30,9.50
2014,03,09,06,31,9.50
2014,03,09,06,32,9.50
2014,03,09,06,33,9.40
2014,03,09,06,34,9.30
2014,03,09,06,35,9.20
2014,03,09,06,36,9.20
2014,03,09,06,37,9.10
2014,03,09,06,38,9.10
2014,03,09,06,39,9.00
2014,03,09,06,40,9.00
2014,03,09,06,41,8.90
2014,03,09,06,42,8.80
2014,03,09,06,43,8.70
2014,03,09,06,44,8.70
2014,03,09,06,45,8.60
2014,03,09,06,46,8.60
2014,03,09,06,47,8.60
2014,03,09,06,48,8.50
2014,03,09,06,49,8.40
2014,03,09,06,50,8.30
2014,03,09,06,51,8.30
2014,03,09,06,52,8.30
2014,03,09,06,53,8.20
2014,03,09,06,54,8.10
2014,03,09,06,55,8.00
2014,03,09,06,56,7.90
2014,03,09,06,57,7.80
2014,03,09,06,58,7.80
2014,03,09,06,59,7.70
2014,03,09,07,00,7.60
2014,03,09,07,01,7.50
2014,03,09,07,02,7.40
2014,03,09,07,03,7.30
2014,03,09,07,04,7.30
2014,03,09,07,05,7.20
2014,03,09,07,06,7.20
2014,03,09,07,07,7.20
2014,03,09,07,08,7.10
2014,03,09,07,09,7.20
2014,03,09,07,10,7.20
2014,03,09,07,11,7.20
2014,03,09,07,12,7.20
2014,03,09,07,13,7.20
2014,03,09,07,14,7.20
2014,03,09,07,15,7.20
2014,03,09,07,16,7.20
2014,03,09,07,17,7.20
2014,03,09,07,18,7.20
2014,03,09,07,19,7.20
2014,03,09,07,20,7.10
2014,03,09,07,21,7.10
2014,03,09,07,22,7.00
2014,03,09,07,23,7.00
2014,03,09,07,24,7.00
2014,03,09,07,25,7.00
2014,03,09,07,26,6.90
2014,03,09,07,27,6.90
2014,03,09,07,28,6.90
2014,03,09,07,29,6.90
2014,03,09,07,30,6.90
2014,03,09,07,31,6.90
2014,03,09,07,32,6.90
2014,03,09,07,33,6.90
2014,03,09,07,34,6.90
2014,03,09,07,35,6.90
2014,03,09,07,36,6.90
2014,03,09,07,37,6.90
2014,03,09,07,38,6.90
2014,03,09,07,39,6.90
2014,03,09,07,40,6.90
2014,03,09,07,41,7.00
2014,03,09,07,42,7.10
2014,03,09,07,43,7.20
2014,03,09,07,44,7.30
2014,03,09,07,45,7.30
2014,03,09,07,46,7.30
2014,03,09,07,47,7.20
2014,03,09,07,48,7.10
2014,03,09,07,49,7.00
2014,03,09,07,50,7.00
2014,03,09,07,51,7.00
2014,03,09,07,52,7.00
2014,03,09,07,53,7.00
2014,03,09,07,54,7.00
2014,03,09,07,55,7.00
2014,03,09,07,56,7.00
2014,03,09,07,57,7.10
2014,03,09,07,58,7.10
2014,03,09,07,59,7.10
2014,03,09,08,00,7.10
2014,03,09,08,01,7.10
2014,03,09,08,02,7.00
2014,03,09,08,03,7.00
2014,03,09,08,04,7.00
2014,03,09,08,05,7.00
2014,03,09,08,06,7.10
2014,03,09,08,07,7.10
2014,03,09,08,08,7.10
2014,03,09,08,09,7.10
2014,03,09,08,10,7.10
2014,03,09,08,11,7.10
2014,03,09,08,12,7.00
2014,03,09,08,13,7.00
2014,03,09,08,14,6.90
2014,03,09,08,15,6.90
2014,03,09,08,16,6.80
2014,03,09,08,17,6.80
2014,03,09,08,18,6.80
2014,03,09,08,19,6.80
2014,03,09,08,20,6.80
2014,03,09,08,21,6.90
2014,03,09,08,22,6.90
2014,03,09,08,23,6.90
2014,03,09,08,24,6.90
2014,03,09,08,25,6.90
2014,03,09,08,26,7.00
2014,03,09,08,27,7.00
2014,03,09,08,28,7.00
2014,03,09,08,29,7.10
2014,03,09,08,30,7.10
2014,03,09,08,31,7.20
2014,03,09,08,32,7.30
2014,03,09,08,33,7.30
2014,03,09,08,34,7.30
2014,03,09,08,35,7.30
2014,03,09,08,36,7.30
2014,03,09,08,37,7.50
2014,03,09,08,38,7.50
2014,03,09,08,39,7.60
2014,03,09,08,40,7.60
2014,03,09,08,41,7.60
2014,03,09,08,42,7.70
2014,03,09,08,43,7.70
2014,03,09,08,44,7.70
2014,03,09,08,45,7.70
2014,03,09,08,46,7.80
2014,03,09,08,47,7.80
2014,03,09,08,48,7.80
2014,03,09,08,49,7.90
2014,03,09,08,50,7.90
2014,03,09,08,51,8.00
2014,03,09,08,52,8.00
2014,03,09,08,53,8.10
2014,03,09,08,54,8.20
2014,03,09,08,55,8.30
2014,03,09,08,56,8.40
2014,03,09,08,57,8.50
2014,03,09,08,58,8.60
2014,03,09,08,59,8.70
2014,03,09,09,00,8.80
2014,03,09,09,01,8.90
2014,03,09,09,02,9.10
2014,03,09,09,03,9.20
2014,03,09,09,04,9.30
2014,03,09,09,05,9.40
2014,03,09,09,06,9.60
2014,03,09,09,07,9.70
2014,03,09,09,08,9.70
2014,03,09,09,09,9.80
2014,03,09,09,10,9.90
2014,03,09,09,11,9.90
2014,03,09,09,12,10.00
2014,03,09,09,13,10.00
2014,03,09,09,14,10.10
2014,03,09,09,15,10.10
2014,03,09,09,16,10.10
2014,03,09,09,17,10.10
2014,03,09,09,18,10.10
2014,03,09,09,19,10.10
2014,03,09,09,20,10.10
2014,03,09,09,21,10.10
2014,03,09,09,22,10.10
2014,03,09,09,23,10.10
2014,03,09,09,24,10.10
2014,03,09,09,25,10.10
2014,03,09,09,26,10.20
2014,03,09,09,27,10.20
2014,03,09,09,28,10.20
2014,03,09,09,29,10.20
2014,03,09,09,30,10.30
2014,03,09,09,31,10.30
2014,03,09,09,32,10.30
2014,03,09,09,33,10.30
2014,03,09,09,34,10.40
2014,03,09,09,35,10.50
2014,03,09,09,36,10.50
2014,03,09,09,37,10.60
2014,03,09,09,38,10.70
2014,03,09,09,39,10.70
2014,03,09,09,40,10.80
2014,03,09,09,41,10.90
2014,03,09,09,42,10.90
2014,03,09,09,43,10.90
2014,03,09,09,44,10.90
2014,03,09,09,45,11.00
2014,03,09,09,46,11.00
2014,03,09,09,47,11.10
2014,03,09,09,48,11.10
2014,03,09,09,49,11.10
2014,03,09,09,50,11.10
2014,03,09,09,51,11.10
2014,03,09,09,52,11.10
2014,03,09,09,53,11.00
2014,03,09,09,54,11.00
2014,03,09,09,55,11.00
2014,03,09,09,56,11.00
2014,03,09,09,57,11.00
2014,03,09,09,58,11.00
2014,03,09,09,59,11.00
2014,03,09,10,00,11.00
2014,03,09,10,01,11.00
2014,03,09,10,02,11.00
2014,03,09,10,03,10.90
2014,03,09,10,04,10.90
2014,03,09,10,05,10.90
2014,03,09,10,06,10.90
2014,03,09,10,07,10.90
2014,03,09,10,08,10.80
2014,03,09,10,09,10.80
2014,03,09,10,10,10.80
2014,03,09,10,11,10.80
2014,03,09,10,12,10.70
2014,03,09,10,13,10.70
2014,03,09,10,14,10.70
2014,03,09,10,15,10.70
2014,03,09,10,16,10.80
2014,03,09,10,17,10.80
2014,03,09,10,18,10.80
2014,03,09,10,19,10.90
2014,03,09,10,20,11.00
2014,03,09,10,21,11.00
2014,03,09,10,22,11.10
2014,03,09,10,23,11.20
2014,03,09,10,24,11.20
2014,03,09,10,25,11.20
2014,03,09,10,26,11.30
2014,03,09,10,27,11.30
2014,03,09,10,28,11.30
2014,03,09,10,29,11.30
2014,03,09,10,30,11.40
2014,03,09,10,31,11.40
2014,03,09,10,32,11.40
2014,03,09,10,33,11.40
2014,03,09,10,34,11.40
2014,03,09,10,35,11.40
2014,03,09,10,36,11.50
2014,03,09,10,37,11.50
2014,03,09,10,38,11.50
2014,03,09,10,39,11.50
2014,03,09,10,40,11.50
2014,03,09,10,41,11.50
2014,03,09,10,42,11.60
2014,03,09,10,43,11.60
2014,03,09,10,44,11.60
2014,03,09,10,45,11.60
2014,03,09,10,46,11.60
2014,03,09,10,47,11.60
2014,03,09,10,48,11.60
2014,03,09,10,49,11.60
2014,03,09,10,50,11.60
2014,03,09,10,51,11.60
2014,03,09,10,52,11.70
2014,03,09,10,53,11.70
2014,03,09,10,54,11.70
2014,03,09,10,55,11.70
2014,03,09,10,56,11.70
2014,03,09,10,57,11.70
2014,03,09,10,58,11.70
2014,03,09,10,59,11.70
2014,03,09,11,00,11.70
2014,03,09,11,01,11.80
2014,03,09,11,02,11.80
2014,03,09,11,03,11.80
2014,03,09,11,04,11.80
2014,03,09,11,05,11.80
2014,03,09,11,06,11.90
2014,03,09,11,07,11.90
2014,03,09,11,08,11.90
2014,03,09,11,09,11.90
2014,03,09,11,10,11.90
2014,03,09,11,11,12.00
2014,03,09,11,12,12.00
2014,03,09,11,13,12.10
2014,03,09,11,14,12.10
2014,03,09,11,15,12.20
2014,03,09,11,16,12.20
2014,03,09,11,17,12.20
2014,03,09,11,18,12.20
2014,03,09,11,19,12.20
2014,03,09,11,20,12.20
2014,03,09,11,21,12.30
2014,03,09,11,22,12.30
2014,03,09,11,23,12.30
2014,03,09,11,24,12.30
2014,03,09,11,25,12.30
2014,03,09,11,26,12.30
2014,03,09,11,27,12.30
2014,03,09,11,28,12.30
2014,03,09,11,29,12.30
2014,03,09,11,30,12.30
2014,03,09,11,31,12.30
2014,03,09,11,32,12.30
2014,03,09,11,33,12.30
2014,03,09,11,34,12.30
2014,03,09,11,35,12.30
2014,03,09,11,36,12.30
2014,03,09,11,37,12.30
2014,03,09,11,38,12.30
2014,03,09,11,39,12.30
2014,03,09,11,40,12.30
2014,03,09,11,41,12.30
2014,03,09,11,42,12.30
2014,03,09,11,43,12.30
2014,03,09,11,44,12.30
2014,03,09,11,45,12.40
2014,03,09,11,46,12.40
2014,03,09,11,47,12.40
2014,03,09,11,48,12.40
2014,03,09,11,49,12.40
2014,03,09,11,50,12.50
2014,03,09,11,51,12.50
2014,03,09,11,52,12.50
2014,03,09,11,53,12.50
2014,03,09,11,54,12.50
2014,03,09,11,55,12.50
2014,03,09,11,56,12.50
2014,03,09,11,57,12.50
2014,03,09,11,58,12.50
2014,03,09,11,59,12.50
2014,03,09,12,00,12.50
2014,03,09,12,01,12.50
2014,03,09,12,02,12.50
2014,03,09,12,03,12.50
2014,03,09,12,04,12.50
2014,03,09,12,05,12.60
2014,03,09,12,06,12.60
2014,03,09,12,07,12.60
2014,03,09,12,08,12.60
2014,03,09,12,09,12.60
2014,03,09,12,10,12.60
2014,03,09,12,11,12.60
2014,03,09,12,12,12.60
2014,03,09,12,13,12.70
2014,03,09,12,14,12.70
2014,03,09,12,15,12.70
2014,03,09,12,16,12.80
2014,03,09,12,17,12.80
2014,03,09,12,18,12.80
2014,03,09,12,19,12.80
2014,03,09,12,20,12.80
2014,03,09,12,21,12.80
2014,03,09,12,22,12.80
2014,03,09,12,23,12.80
2014,03,09,12,24,12.80
2014,03,09,12,25,12.80
2014,03,09,12,26,12.70
2014,03,09,12,27,12.70
2014,03,09,12,28,12.60
2014,03,09,12,29,12.60
2014,03,09,12,30,12.60
2014,03,09,12,31,12.60
2014,03,09,12,32,12.60
2014,03,09,12,33,12.60
2014,03,09,12,34,12.60
2014,03,09,12,35,12.60
2014,03,09,12,36,12.60
2014,03,09,12,37,12.60
2014,03,09,12,38,12.60
2014,03,09,12,39,12.60
2014,03,09,12,40,12.60
2014,03,09,12,41,12.70
2014,03,09,12,42,12.70
2014,03,09,12,43,12.70
2014,03,09,12,44,12.70
2014,03,09,12,45,12.70
2014,03,09,12,46,12.70
2014,03,09,12,47,12.70
2014,03,09,12,48,12.70
2014,03,09,12,49,12.70
2014,03,09,12,50,12.80
2014,03,09,12,51,12.80
2014,03,09,12,52,12.80
2014,03,09,12,53,12.80
2014,03,09,12,54,12.70
2014,03,09,12,55,12.70
2014,03,09,12,56,12.70
2014,03,09,12,57,12.70
2014,03,09,12,58,12.80
2014,03,09,12,59,12.80
2014,03,09,13,00,12.80
2014,03,09,13,01,12.80
2014,03,09,13,02,12.80
2014,03,09,13,03,12.90
2014,03,09,13,04,12.90
2014,03,09,13,05,13.00
2014,03,09,13,06,13.00
2014,03,09,13,07,13.10
2014,03,09,13,08,13.10
2014,03,09,13,09,13.10
2014,03,09,13,10,13.20
2014,03,09,13,11,13.20
2014,03,09,13,12,13.20
2014,03,09,13,13,13.10
2014,03,09,13,14,13.10
2014,03,09,13,15,13.10
2014,03,09,13,16,13.10
2014,03,09,13,17,13.10
2014,03,09,13,18,13.10
2014,03,09,13,19,13.10
2014,03,09,13,20,13.00
2014,03,09,13,21,13.00
2014,03,09,13,22,13.00
2014,03,09,13,23,13.10
2014,03,09,13,24,13.10
2014,03,09,13,25,13.20
2014,03,09,13,26,13.20
2014,03,09,13,27,13.30
2014,03,09,13,28,13.30
2014,03,09,13,29,13.30
2014,03,09,13,30,13.40
2014,03,09,13,31,13.40
2014,03,09,13,32,13.40
2014,03,09,13,33,13.50
2014,03,09,13,34,13.60
2014,03,09,13,35,13.60
2014,03,09,13,36,13.60
2014,03,09,13,37,13.60
2014,03,09,13,38,13.60
2014,03,09,13,39,13.60
2014,03,09,13,40,13.60
2014,03,09,13,41,13.60
2014,03,09,13,42,13.60
2014,03,09,13,43,13.70
2014,03,09,13,44,13.70
2014,03,09,13,45,13.70
2014,03,09,13,46,13.70
2014,03,09,13,47,13.70
2014,03,09,13,48,13.70
2014,03,09,13,49,13.70
2014,03,09,13,50,13.70
2014,03,09,13,51,13.70
2014,03,09,13,52,13.70
2014,03,09,13,53,13.80
2014,03,09,13,54,13.80
2014,03,09,13,55,13.90
2014,03,09,13,56,13.90
2014,03,09,13,57,14.00
2014,03,09,13,58,14.10
2014,03,09,13,59,14.10
2014,03,09,14,00,14.20
2014,03,09,14,01,14.20
2014,03,09,14,02,14.10
2014,03,09,14,03,14.00
2014,03,09,14,04,13.90
2014,03,09,14,05,13.80
2014,03,09,14,06,13.80
2014,03,09,14,07,13.80
2014,03,09,14,08,13.70
2014,03,09,14,09,13.60
2014,03,09,14,10,13.60
2014,03,09,14,11,13.60
2014,03,09,14,12,13.50
2014,03,09,14,13,13.50
2014,03,09,14,14,13.50
2014,03,09,14,15,13.50
2014,03,09,14,16,13.60
2014,03,09,14,17,13.60
2014,03,09,14,18,13.60
2014,03,09,14,19,13.60
2014,03,09,14,20,13.70
2014,03,09,14,21,13.70
2014,03,09,14,22,13.70
2014,03,09,14,23,13.80
2014,03,09,14,24,13.80
2014,03,09,14,25,13.80
2014,03,09,14,26,13.80
2014,03,09,14,27,13.80
2014,03,09,14,28,13.80
2014,03,09,14,29,13.80
2014,03,09,14,30,13.80
2014,03,09,14,31,13.80
2014,03,09,14,32,13.80
2014,03,09,14,33,13.80
2014,03,09,14,34,13.70
2014,03,09,14,35,13.70
2014,03,09,14,36,13.70
2014,03,09,14,37,13.70
2014,03,09,14,38,13.70
2014,03,09,14,39,13.70
2014,03,09,14,40,13.60
2014,03,09,14,41,13.60
2014,03,09,14,42,13.60
2014,03,09,14,43,13.60
2014,03,09,14,44,13.60
2014,03,09,14,45,13.60
2014,03,09,14,46,13.60
2014,03,09,14,47,13.60
2014,03,09,14,48,13.70
2014,03,09,14,49,13.70
2014,03,09,14,50,13.70
2014,03,09,14,51,13.80
2014,03,09,14,52,13.80
2014,03,09,14,53,13.80
2014,03,09,14,54,13.90
2014,03,09,14,55,13.90
2014,03,09,14,56,14.00
2014,03,09,14,57,14.10
2014,03,09,14,58,14.00
2014,03,09,14,59,13.70
2014,03,09,15,00,13.30
2014,03,09,15,01,13.00
2014,03,09,15,02,12.70
2014,03,09,15,03,12.40
2014,03,09,15,04,12.10
2014,03,09,15,05,11.90
2014,03,09,15,06,11.70
2014,03,09,15,07,11.70
2014,03,09,15,08,11.60
2014,03,09,15,09,11.60
2014,03,09,15,10,11.60
2014,03,09,15,11,11.70
2014,03,09,15,12,11.80
2014,03,09,15,13,11.90
2014,03,09,15,14,12.00
2014,03,09,15,15,12.00
2014,03,09,15,16,12.00
2014,03,09,15,17,12.00
2014,03,09,15,18,12.10
2014,03,09,15,19,12.10
2014,03,09,15,20,12.10
2014,03,09,15,21,12.10
2014,03,09,15,22,12.00
2014,03,09,15,23,12.00
2014,03,09,15,24,12.00
2014,03,09,15,25,12.00
2014,03,09,15,26,11.90
2014,03,09,15,27,11.80
2014,03,09,15,28,11.70
2014,03,09,15,29,11.60
2014,03,09,15,30,11.60
2014,03,09,15,31,11.60
2014,03,09,15,32,11.60
2014,03,09,15,33,11.50
2014,03,09,15,34,11.60
2014,03,09,15,35,11.60
2014,03,09,15,36,11.60
2014,03,09,15,37,11.60
2014,03,09,15,38,11.60
2014,03,09,15,39,11.50
2014,03,09,15,40,11.50
2014,03,09,15,41,11.50
2014,03,09,15,42,11.60
2014,03,09,15,43,11.50
2014,03,09,15,44,11.40
2014,03,09,15,45,11.40
2014,03,09,15,46,11.40
2014,03,09,15,47,11.30
2014,03,09,15,48,11.30
2014,03,09,15,49,11.30
2014,03,09,15,50,11.30
2014,03,09,15,51,11.30
2014,03,09,15,52,11.30
2014,03,09,15,53,11.40
2014,03,09,15,54,11.50
2014,03,09,15,55,11.60
2014,03,09,15,56,11.60
2014,03,09,15,57,11.60
2014,03,09,15,58,11.50
2014,03,09,15,59,11.60
2014,03,09,16,00,11.60
2014,03,09,16,01,11.70
2014,03,09,16,02,11.70
2014,03,09,16,03,11.70
2014,03,09,16,04,11.70
2014,03,09,16,05,11.70
2014,03,09,16,06,11.70
2014,03,09,16,07,11.80
2014,03,09,16,08,11.70
2014,03,09,16,09,11.70
2014,03,09,16,10,11.60
2014,03,09,16,11,11.60
2014,03,09,16,12,11.60
2014,03,09,16,13,11.60
2014,03,09,16,14,11.50
2014,03,09,16,15,11.50
2014,03,09,16,16,11.40
2014,03,09,16,17,11.30
2014,03,09,16,18,11.30
2014,03,09,16,19,11.30
2014,03,09,16,20,11.20
2014,03,09,16,21,11.20
2014,03,09,16,22,11.20
2014,03,09,16,23,11.20
2014,03,09,16,24,11.20
2014,03,09,16,25,11.20
2014,03,09,16,26,11.20
2014,03,09,16,27,11.20
2014,03,09,16,28,11.20
2014,03,09,16,29,11.20
2014,03,09,16,30,11.20
2014,03,09,16,31,11.10
2014,03,09,16,32,11.10
2014,03,09,16,33,11.00
2014,03,09,16,34,11.00
2014,03,09,16,35,10.90
2014,03,09,16,36,10.90
2014,03,09,16,37,10.90
2014,03,09,16,38,10.90
2014,03,09,16,39,11.00
2014,03,09,16,40,11.00
2014,03,09,16,41,11.00
2014,03,09,16,42,10.90
2014,03,09,16,43,10.90
2014,03,09,16,44,10.90
2014,03,09,16,45,11.00
2014,03,09,16,46,11.00
2014,03,09,16,47,11.00
2014,03,09,16,48,11.10
2014,03,09,16,49,11.10
2014,03,09,16,50,11.10
2014,03,09,16,51,11.10
2014,03,09,16,52,11.00
2014,03,09,16,53,11.00
2014,03,09,16,54,10.90
2014,03,09,16,55,10.90
2014,03,09,16,56,10.90
2014,03,09,16,57,10.90
2014,03,09,16,58,10.90
2014,03,09,16,59,10.90
2014,03,09,17,00,10.80
2014,03,09,17,01,10.80
2014,03,09,17,02,10.80
2014,03,09,17,03,10.70
2014,03,09,17,04,10.70
2014,03,09,17,05,10.70
2014,03,09,17,06,10.70
2014,03,09,17,07,10.70
2014,03,09,17,08,10.70
2014,03,09,17,09,10.70
2014,03,09,17,10,10.70
2014,03,09,17,11,10.60
2014,03,09,17,12,10.60
2014,03,09,17,13,10.70
2014,03,09,17,14,10.70
2014,03,09,17,15,10.70
2014,03,09,17,16,10.70
2014,03,09,17,17,10.70
2014,03,09,17,18,10.70
2014,03,09,17,19,10.60
2014,03,09,17,20,10.60
2014,03,09,17,21,10.60
2014,03,09,17,22,10.60
2014,03,09,17,23,10.60
2014,03,09,17,24,10.60
2014,03,09,17,25,10.60
2014,03,09,17,26,10.60
2014,03,09,17,27,10.60
2014,03,09,17,28,10.60
2014,03,09,17,29,10.70
2014,03,09,17,30,10.70
2014,03,09,17,31,10.70
2014,03,09,17,32,10.70
2014,03,09,17,33,10.70
2014,03,09,17,34,10.70
2014,03,09,17,35,10.70
2014,03,09,17,36,10.70
2014,03,09,17,37,10.70
2014,03,09,17,38,10.70
2014,03,09,17,39,10.70
2014,03,09,17,40,10.70
2014,03,09,17,41,10.70
2014,03,09,17,42,10.80
2014,03,09,17,43,10.80
2014,03,09,17,44,10.80
2014,03,09,17,45,10.80
2014,03,09,17,46,10.90
2014,03,09,17,47,10.90
2014,03,09,17,48,11.00
2014,03,09,17,49,11.00
2014,03,09,17,50,11.00
2014,03,09,17,51,11.00
2014,03,09,17,52,11.00
2014,03,09,17,53,11.00
2014,03,09,17,54,11.00
2014,03,09,17,55,10.90
2014,03,09,17,56,10.90
2014,03,09,17,57,10.80
2014,03,09,17,58,10.80
2014,03,09,17,59,10.80
2014,03,09,18,00,10.70
2014,03,09,18,01,10.70
2014,03,09,18,02,10.70
2014,03,09,18,03,10.70
2014,03,09,18,04,10.70
2014,03,09,18,05,10.80
2014,03,09,18,06,10.80
2014,03,09,18,07,10.80
2014,03,09,18,08,10.80
2014,03,09,18,09,10.80
2014,03,09,18,10,10.80
2014,03,09,18,11,10.80
2014,03,09,18,12,10.80
2014,03,09,18,13,10.70
2014,03,09,18,14,10.70
2014,03,09,18,15,10.70
2014,03,09,18,16,10.70
2014,03,09,18,17,10.70
2014,03,09,18,18,10.70
2014,03,09,18,19,10.70
2014,03,09,18,20,10.70
2014,03,09,18,21,10.70
2014,03,09,18,22,10.70
2014,03,09,18,23,10.80
2014,03,09,18,24,10.70
2014,03,09,18,25,10.70
2014,03,09,18,26,10.70
2014,03,09,18,27,10.70